Regional Weather Roundup
Issued by NWS Jackson, KY

Home | Current Version | Previous Version | Graphics & Text | Print | Product List | Glossary On
Versions: 1 2 3 4 5 6 7 8 9 10 11 12 13 14 15 16 17 18 19 20 21 22 23 24 25 26 27 28 29 30 31 32 33 34 35 36 37 38 39 40 41 42 43 44 45 46 47 48 49 50
000
ASUS43 KJKL 060010
RWRJKL

EAST KENTUCKY HOURLY WEATHER ROUNDUP
NATIONAL WEATHER SERVICE JACKSON KY
800 PM EDT THU MAY 05 2016

NOTE: "FAIR" INDICATES FEW OR NO CLOUDS BELOW 12,000 FEET WITH
NO SIGNIFICANT WEATHER AND/OR OBSTRUCTIONS TO VISIBILITY.

* THESE REPORTS ARE NOT UNDER NWS QUALITY CONTROL AND MAY NOT
  REPORT WEATHER SUCH AS PRECIPITATION AND FOG.

KYZ079-080-083-085-087-088-110-112-115-119-120-060100
...EASTERN KENTUCKY...

CITY           SKY/WX    TMP DP  RH WIND       PRES   REMARKS
JACKSON        CLOUDY    50  41  71 NW7       29.84R
6HR MIN TEMP:  50; 6HR MAX TEMP:  53;

LONDON         CLOUDY    51  39  63 NW6       29.86S
6HR MIN TEMP:  50; 6HR MAX TEMP:  54;

SOMERSET*      CLOUDY    52  39  62 NW8       29.90S
MONTICELLO*    MOCLDY    52  42  69 NW10      29.91S
6HR MIN TEMP:  48; 6HR MAX TEMP:  54;

WILLIAMSBURG*  CLOUDY    50  41  71 CALM      29.88R
MIDDLESBORO*   CLOUDY    51  40  65 NW8       29.86R
6HR MIN TEMP:  50; 6HR MAX TEMP:  55;

HARLAN APT*    CLOUDY    50  37  62 W6        29.84R
HAZARD APT*    CLOUDY    52  41  66 W9        29.84R
BLACK MTN*       N/A     36  36 100 N13         N/A  WCI  27
PIKE CO APT*   CLOUDY    49  42  76 NW8       29.81R
BIG SANDY APT* CLOUDY    52  43  71 NW5       29.82R
6HR MIN TEMP:  51; 6HR MAX TEMP:  53;

MOREHEAD APT*  CLOUDY    52  45  76 NW10      29.87R
$$

KYZ035-036-041-042-044-050-067-078-099-060100
...CENTRAL KENTUCKY...

CITY           SKY/WX    TMP DP  RH WIND       PRES   REMARKS
MT STERLING*   CLOUDY    50  45  81 NW7       29.88S
FLEMING/MASON* CLEAR     51  46  80 NW9       29.86R
DANVILLE*      CLOUDY    50  43  76 NW6       29.90S
RICHMOND*      CLOUDY    50  43  76 NW12      29.88R
LEXINGTON      CLOUDY    51  44  77 NW7       29.89R
6HR MIN TEMP:  51; 6HR MAX TEMP:  57;

FRANKFORT      CLOUDY    52  45  77 CALM      29.88S
6HR MIN TEMP:  52; 6HR MAX TEMP:  57;

LOUISVILLE     PTCLDY    59  45  59 NW9       29.90S
6HR MIN TEMP:  53; 6HR MAX TEMP:  61;

LEBANON*       CLOUDY    50  45  81 NW7       29.91S
BOWLING GREEN  CLOUDY    56  44  64 NW3       29.94S
6HR MIN TEMP:  55; 6HR MAX TEMP:  61;

$$

KYZ091>093-OHZ055-061-077-WVZ005-015-034-035-042-060100
...SOUTHERN OHIO/WEST VIRGINIA...

CITY           SKY/WX    TMP DP  RH WIND       PRES   REMARKS
COVINGTON      PTCLDY    55  47  74 W8        29.86S
COLUMBUS       PTCLDY    58  41  53 N18G29    29.81R
DAYTON         CLOUDY    57  42  57 N8        29.87R
WILMINGTON     CLEAR     58  38  47 N13G20    29.83R
HUNTINGTON     CLOUDY    54  45  71 NW8       29.79R
CHARLESTON     CLOUDY    51  47  86 W6        29.75R
PINEVILLE*     LGT RAIN  46  42  89 MISG      29.81S
BECKLEY        LGT RAIN  43  41  93 NW6       29.74R
$$

VAZ002-007-008-TNZ017-027-036-066-071-060100
...SOUTHWEST VIRGINIA/EAST TENNESSEE...

CITY           SKY/WX    TMP DP  RH WIND       PRES   REMARKS
WISE*          LGT RAIN  43  41  93 NW8       29.80R
BRISTOL        LGT RAIN  47  42  83 NW6       29.80R
SEVIERVILLE*   CLOUDY    52  39  62 NW10      29.84R
KNOXVILLE      CLOUDY    52  39  61 NW7       29.86R
OAK RIDGE      MOCLDY    53  37  54 VRB3      29.88R
CROSSVILLE     PTCLDY    48  38  68 NW9G17    29.89R
NASHVILLE      MOCLDY    57  40  52 N13G25    29.95R
$$

...KEY TO REMARKS...
VSB - VISIBILITY IN MILES
WCI - WIND CHILL INDEX
HX  - HEAT INDEX

$$



USA.gov is the U.S. government's official web portal to all federal, state and local government web resources and services.